TimeCST,TemperatureF,Dew PointF,Humidity,Sea Level PressureIn,VisibilityMPH,Wind Direction,Wind SpeedMPH,Gust SpeedMPH,PrecipitationIn,Events,Conditions,WindDirDegrees,DateUTC
12:54 AM,27.0,19.0,72,29.94,10.0,West,12.7,19.6,N/A,,Overcast,270,2012-11-12 06:54:00
1:54 AM,27.0,19.0,72,29.94,10.0,West,11.5,17.3,N/A,,Overcast,260,2012-11-12 07:54:00
2:54 AM,25.0,17.1,72,29.97,10.0,WSW,13.8,20.7,N/A,,Overcast,250,2012-11-12 08:54:00
3:54 AM,23.0,12.9,65,29.98,10.0,WSW,16.1,24.2,N/A,,Overcast,250,2012-11-12 09:54:00
4:54 AM,23.0,14.0,68,29.99,10.0,West,15.0,23.0,N/A,,Overcast,260,2012-11-12 10:54:00
5:54 AM,23.0,12.0,63,29.99,10.0,West,17.3,25.3,N/A,,Overcast,270,2012-11-12 11:54:00
6:25 AM,21.2,12.2,68,29.96,10.0,West,16.1,23.0,N/A,,Overcast,260,2012-11-12 12:25:00
6:54 AM,21.9,12.9,68,30.02,10.0,WSW,6.9,16.1,N/A,,Overcast,250,2012-11-12 12:54:00
7:54 AM,23.0,12.9,65,30.02,10.0,WSW,10.4,-,N/A,,Overcast,240,2012-11-12 13:54:00
8:54 AM,24.1,12.9,62,30.02,10.0,WSW,17.3,25.3,N/A,,Overcast,250,2012-11-12 14:54:00
9:13 AM,24.8,12.2,59,29.98,10.0,West,17.3,25.3,N/A,,Overcast,260,2012-11-12 15:13:00
9:21 AM,24.8,12.2,59,29.98,10.0,WSW,16.1,25.3,N/A,,Overcast,240,2012-11-12 15:21:00
9:54 AM,24.1,12.9,62,30.04,10.0,West,10.4,24.2,N/A,,Overcast,260,2012-11-12 15:54:00
10:54 AM,24.1,12.9,62,30.04,8.0,West,15.0,23.0,0.00,Snow,Light Snow,260,2012-11-12 16:54:00
11:54 AM,25.0,12.9,60,30.04,9.0,WSW,15.0,24.2,0.00,,Overcast,250,2012-11-12 17:54:00
12:54 PM,25.0,14.0,63,30.04,9.0,WSW,17.3,24.2,0.00,,Overcast,240,2012-11-12 18:54:00
1:54 PM,24.1,16.0,71,30.05,4.0,WNW,13.8,17.3,0.00,Snow,Light Snow,290,2012-11-12 19:54:00
1:58 PM,24.8,15.8,69,30.01,1.8,West,9.2,17.3,0.00,Snow,Light Snow,270,2012-11-12 19:58:00
2:04 PM,24.8,17.6,74,30.01,2.0,West,8.1,-,0.00,Snow,Light Snow,260,2012-11-12 20:04:00
2:12 PM,24.8,15.8,69,30.01,9.0,WSW,16.1,21.9,0.00,,Overcast,240,2012-11-12 20:12:00
2:54 PM,27.0,14.0,58,30.06,10.0,West,11.5,21.9,0.00,,Overcast,260,2012-11-12 20:54:00
3:18 PM,24.8,15.8,69,30.04,2.5,West,15.0,23.0,0.00,Snow,Light Snow,260,2012-11-12 21:18:00
3:29 PM,24.8,17.6,74,30.05,3.0,West,8.1,-,0.00,Snow,Light Snow,270,2012-11-12 21:29:00
3:54 PM,25.0,15.1,66,30.11,10.0,West,15.0,20.7,0.00,,Overcast,260,2012-11-12 21:54:00
4:54 PM,25.0,12.9,60,30.14,10.0,West,9.2,17.3,N/A,,Overcast,270,2012-11-12 22:54:00
5:54 PM,25.0,14.0,63,30.17,10.0,West,10.4,-,N/A,,Overcast,260,2012-11-12 23:54:00
6:54 PM,25.0,14.0,63,30.19,10.0,West,10.4,20.7,N/A,,Overcast,270,2012-11-13 00:54:00
7:54 PM,25.0,15.1,66,30.22,10.0,West,12.7,-,N/A,,Overcast,280,2012-11-13 01:54:00
8:54 PM,25.0,14.0,63,30.26,10.0,West,9.2,18.4,N/A,,Overcast,260,2012-11-13 02:54:00
9:54 PM,24.1,14.0,65,30.28,10.0,West,8.1,17.3,N/A,,Overcast,280,2012-11-13 03:54:00
10:54 PM,24.1,15.1,69,30.30,10.0,West,6.9,-,N/A,,Overcast,270,2012-11-13 04:54:00
11:54 PM,25.0,15.1,66,30.32,10.0,West,3.5,-,N/A,,Overcast,270,2012-11-13 05:54:00